Year,Month,Day,Hour,Minute,Value (Times are PST for temperature in C)
2013,04,16,00,00,8.70
2013,04,16,00,01,8.70
2013,04,16,00,02,8.60
2013,04,16,00,03,8.60
2013,04,16,00,04,8.60
2013,04,16,00,05,8.60
2013,04,16,00,06,8.60
2013,04,16,00,07,8.60
2013,04,16,00,08,8.60
2013,04,16,00,09,8.60
2013,04,16,00,10,8.50
2013,04,16,00,11,8.50
2013,04,16,00,12,8.50
2013,04,16,00,13,8.50
2013,04,16,00,14,8.50
2013,04,16,00,15,8.60
2013,04,16,00,16,8.60
2013,04,16,00,17,8.60
2013,04,16,00,18,8.60
2013,04,16,00,19,8.60
2013,04,16,00,20,8.50
2013,04,16,00,21,8.50
2013,04,16,00,22,8.40
2013,04,16,00,23,8.40
2013,04,16,00,24,8.40
2013,04,16,00,25,8.30
2013,04,16,00,26,8.30
2013,04,16,00,27,8.30
2013,04,16,00,28,8.30
2013,04,16,00,29,8.30
2013,04,16,00,30,8.30
2013,04,16,00,31,8.30
2013,04,16,00,32,8.30
2013,04,16,00,33,8.30
2013,04,16,00,34,8.30
2013,04,16,00,35,8.30
2013,04,16,00,36,8.30
2013,04,16,00,37,8.30
2013,04,16,00,38,8.30
2013,04,16,00,39,8.30
2013,04,16,00,40,8.30
2013,04,16,00,41,8.30
2013,04,16,00,42,8.30
2013,04,16,00,43,8.30
2013,04,16,00,44,8.30
2013,04,16,00,45,8.30
2013,04,16,00,46,8.30
2013,04,16,00,47,8.30
2013,04,16,00,48,8.30
2013,04,16,00,49,8.40
2013,04,16,00,50,8.40
2013,04,16,00,51,8.40
2013,04,16,00,52,8.40
2013,04,16,00,53,8.40
2013,04,16,00,54,8.40
2013,04,16,00,55,8.40
2013,04,16,00,56,8.40
2013,04,16,00,57,8.30
2013,04,16,00,58,8.30
2013,04,16,00,59,8.20
2013,04,16,01,00,8.20
2013,04,16,01,01,8.10
2013,04,16,01,02,8.00
2013,04,16,01,03,8.00
2013,04,16,01,04,7.90
2013,04,16,01,05,7.90
2013,04,16,01,06,7.90
2013,04,16,01,07,7.80
2013,04,16,01,08,7.80
2013,04,16,01,09,7.80
2013,04,16,01,10,7.80
2013,04,16,01,11,7.80
2013,04,16,01,12,7.80
2013,04,16,01,13,7.70
2013,04,16,01,14,7.70
2013,04,16,01,15,7.60
2013,04,16,01,16,7.60
2013,04,16,01,17,7.60
2013,04,16,01,18,7.60
2013,04,16,01,19,7.60
2013,04,16,01,20,7.60
2013,04,16,01,21,7.60
2013,04,16,01,22,7.60
2013,04,16,01,23,7.60
2013,04,16,01,24,7.60
2013,04,16,01,25,7.50
2013,04,16,01,26,7.50
2013,04,16,01,27,7.40
2013,04,16,01,28,7.40
2013,04,16,01,29,7.30
2013,04,16,01,30,7.30
2013,04,16,01,31,7.30
2013,04,16,01,32,7.30
2013,04,16,01,33,7.30
2013,04,16,01,34,7.30
2013,04,16,01,35,7.30
2013,04,16,01,36,7.40
2013,04,16,01,37,7.40
2013,04,16,01,38,7.40
2013,04,16,01,39,7.30
2013,04,16,01,40,7.30
2013,04,16,01,41,7.30
2013,04,16,01,42,7.30
2013,04,16,01,43,7.20
2013,04,16,01,44,7.20
2013,04,16,01,45,7.10
2013,04,16,01,46,7.10
2013,04,16,01,47,7.10
2013,04,16,01,48,7.10
2013,04,16,01,49,7.10
2013,04,16,01,50,7.10
2013,04,16,01,51,7.10
2013,04,16,01,52,7.00
2013,04,16,01,53,7.00
2013,04,16,01,54,7.00
2013,04,16,01,55,7.00
2013,04,16,01,56,6.90
2013,04,16,01,57,6.90
2013,04,16,01,58,6.90
2013,04,16,01,59,6.90
2013,04,16,02,00,6.90
2013,04,16,02,01,6.80
2013,04,16,02,02,6.80
2013,04,16,02,03,6.80
2013,04,16,02,04,6.80
2013,04,16,02,05,6.70
2013,04,16,02,06,6.70
2013,04,16,02,07,6.70
2013,04,16,02,08,6.70
2013,04,16,02,09,6.60
2013,04,16,02,10,6.60
2013,04,16,02,11,6.50
2013,04,16,02,12,6.50
2013,04,16,02,13,6.40
2013,04,16,02,14,6.40
2013,04,16,02,15,6.40
2013,04,16,02,16,6.40
2013,04,16,02,17,6.30
2013,04,16,02,18,6.30
2013,04,16,02,19,6.30
2013,04,16,02,20,6.30
2013,04,16,02,21,6.30
2013,04,16,02,22,6.20
2013,04,16,02,23,6.20
2013,04,16,02,24,6.20
2013,04,16,02,25,6.20
2013,04,16,02,26,6.10
2013,04,16,02,27,6.10
2013,04,16,02,28,6.00
2013,04,16,02,29,6.00
2013,04,16,02,30,6.00
2013,04,16,02,31,6.00
2013,04,16,02,32,6.00
2013,04,16,02,33,6.00
2013,04,16,02,34,6.00
2013,04,16,02,35,5.90
2013,04,16,02,36,5.90
2013,04,16,02,37,5.90
2013,04,16,02,38,5.90
2013,04,16,02,39,5.90
2013,04,16,02,40,5.90
2013,04,16,02,41,5.90
2013,04,16,02,42,5.90
2013,04,16,02,43,6.00
2013,04,16,02,44,6.00
2013,04,16,02,45,6.10
2013,04,16,02,46,6.30
2013,04,16,02,47,6.50
2013,04,16,02,48,6.70
2013,04,16,02,49,6.90
2013,04,16,02,50,7.00
2013,04,16,02,51,7.20
2013,04,16,02,52,7.30
2013,04,16,02,53,7.40
2013,04,16,02,54,7.50
2013,04,16,02,55,7.50
2013,04,16,02,56,7.50
2013,04,16,02,57,7.50
2013,04,16,02,58,7.50
2013,04,16,02,59,7.50
2013,04,16,03,00,7.40
2013,04,16,03,01,7.30
2013,04,16,03,02,7.30
2013,04,16,03,03,7.20
2013,04,16,03,04,7.10
2013,04,16,03,05,7.00
2013,04,16,03,06,7.00
2013,04,16,03,07,6.90
2013,04,16,03,08,6.90
2013,04,16,03,09,6.80
2013,04,16,03,10,6.80
2013,04,16,03,11,6.80
2013,04,16,03,12,6.70
2013,04,16,03,13,6.70
2013,04,16,03,14,6.70
2013,04,16,03,15,6.70
2013,04,16,03,16,6.70
2013,04,16,03,17,6.70
2013,04,16,03,18,6.60
2013,04,16,03,19,6.60
2013,04,16,03,20,6.60
2013,04,16,03,21,6.50
2013,04,16,03,22,6.50
2013,04,16,03,23,6.40
2013,04,16,03,24,6.40
2013,04,16,03,25,6.30
2013,04,16,03,26,6.30
2013,04,16,03,27,6.20
2013,04,16,03,28,6.20
2013,04,16,03,29,6.10
2013,04,16,03,30,6.10
2013,04,16,03,31,6.00
2013,04,16,03,32,6.00
2013,04,16,03,33,6.00
2013,04,16,03,34,6.00
2013,04,16,03,35,6.00
2013,04,16,03,36,6.00
2013,04,16,03,37,6.00
2013,04,16,03,38,6.00
2013,04,16,03,39,6.00
2013,04,16,03,40,6.00
2013,04,16,03,41,6.00
2013,04,16,03,42,6.00
2013,04,16,03,43,6.00
2013,04,16,03,44,6.00
2013,04,16,03,45,6.10
2013,04,16,03,46,6.00
2013,04,16,03,47,6.00
2013,04,16,03,48,6.00
2013,04,16,03,49,6.00
2013,04,16,03,50,5.90
2013,04,16,03,51,5.90
2013,04,16,03,52,5.90
2013,04,16,03,53,5.90
2013,04,16,03,54,5.90
2013,04,16,03,55,5.90
2013,04,16,03,56,6.00
2013,04,16,03,57,6.00
2013,04,16,03,58,6.00
2013,04,16,03,59,6.00
2013,04,16,04,00,6.00
2013,04,16,04,01,5.90
2013,04,16,04,02,5.90
2013,04,16,04,03,5.80
2013,04,16,04,04,5.80
2013,04,16,04,05,5.80
2013,04,16,04,06,5.80
2013,04,16,04,07,5.80
2013,04,16,04,08,5.80
2013,04,16,04,09,5.70
2013,04,16,04,10,5.70
2013,04,16,04,11,5.80
2013,04,16,04,12,5.80
2013,04,16,04,13,5.80
2013,04,16,04,14,5.80
2013,04,16,04,15,5.80
2013,04,16,04,16,5.80
2013,04,16,04,17,5.80
2013,04,16,04,18,5.80
2013,04,16,04,19,5.90
2013,04,16,04,20,5.90
2013,04,16,04,21,5.90
2013,04,16,04,22,5.90
2013,04,16,04,23,5.90
2013,04,16,04,24,5.90
2013,04,16,04,25,5.90
2013,04,16,04,26,5.90
2013,04,16,04,27,5.90
2013,04,16,04,28,5.90
2013,04,16,04,29,5.90
2013,04,16,04,30,5.90
2013,04,16,04,31,5.90
2013,04,16,04,32,5.90
2013,04,16,04,33,5.90
2013,04,16,04,34,5.80
2013,04,16,04,35,5.80
2013,04,16,04,36,5.80
2013,04,16,04,37,5.70
2013,04,16,04,38,5.70
2013,04,16,04,39,5.70
2013,04,16,04,40,5.60
2013,04,16,04,41,5.60
2013,04,16,04,42,5.60
2013,04,16,04,43,5.60
2013,04,16,04,44,5.50
2013,04,16,04,45,5.50
2013,04,16,04,46,5.50
2013,04,16,04,47,5.60
2013,04,16,04,48,5.60
2013,04,16,04,49,5.60
2013,04,16,04,50,5.60
2013,04,16,04,51,5.60
2013,04,16,04,52,5.60
2013,04,16,04,53,5.60
2013,04,16,04,54,5.70
2013,04,16,04,55,5.70
2013,04,16,04,56,5.70
2013,04,16,04,57,5.70
2013,04,16,04,58,5.70
2013,04,16,04,59,5.70
2013,04,16,05,00,5.70
2013,04,16,05,01,5.70
2013,04,16,05,02,5.70
2013,04,16,05,03,5.70
2013,04,16,05,04,5.70
2013,04,16,05,05,5.70
2013,04,16,05,06,5.70
2013,04,16,05,07,5.70
2013,04,16,05,08,5.70
2013,04,16,05,09,5.70
2013,04,16,05,10,5.70
2013,04,16,05,11,5.80
2013,04,16,05,12,5.90
2013,04,16,05,13,6.00
2013,04,16,05,14,6.10
2013,04,16,05,15,6.20
2013,04,16,05,16,6.30
2013,04,16,05,17,6.40
2013,04,16,05,18,6.50
2013,04,16,05,19,6.60
2013,04,16,05,20,6.70
2013,04,16,05,21,6.80
2013,04,16,05,22,6.90
2013,04,16,05,23,7.00
2013,04,16,05,24,7.10
2013,04,16,05,25,7.10
2013,04,16,05,26,7.20
2013,04,16,05,27,7.20
2013,04,16,05,28,7.30
2013,04,16,05,29,7.30
2013,04,16,05,30,7.30
2013,04,16,05,31,7.30
2013,04,16,05,32,7.40
2013,04,16,05,33,7.40
2013,04,16,05,34,7.40
2013,04,16,05,35,7.40
2013,04,16,05,36,7.40
2013,04,16,05,37,7.30
2013,04,16,05,38,7.30
2013,04,16,05,39,7.30
2013,04,16,05,40,7.30
2013,04,16,05,41,7.30
2013,04,16,05,42,7.30
2013,04,16,05,43,7.40
2013,04,16,05,44,7.40
2013,04,16,05,45,7.40
2013,04,16,05,46,7.40
2013,04,16,05,47,7.40
2013,04,16,05,48,7.40
2013,04,16,05,49,7.40
2013,04,16,05,50,7.40
2013,04,16,05,51,7.40
2013,04,16,05,52,7.40
2013,04,16,05,53,7.40
2013,04,16,05,54,7.50
2013,04,16,05,55,7.50
2013,04,16,05,56,7.50
2013,04,16,05,57,7.50
2013,04,16,05,58,7.50
2013,04,16,05,59,7.50
2013,04,16,06,00,7.60
2013,04,16,06,01,7.60
2013,04,16,06,02,7.60
2013,04,16,06,03,7.60
2013,04,16,06,04,7.60
2013,04,16,06,05,7.60
2013,04,16,06,06,7.60
2013,04,16,06,07,7.60
2013,04,16,06,08,7.60
2013,04,16,06,09,7.60
2013,04,16,06,10,7.60
2013,04,16,06,11,7.60
2013,04,16,06,12,7.70
2013,04,16,06,13,7.70
2013,04,16,06,14,7.70
2013,04,16,06,15,7.70
2013,04,16,06,16,7.70
2013,04,16,06,17,7.70
2013,04,16,06,18,7.70
2013,04,16,06,19,7.70
2013,04,16,06,20,7.70
2013,04,16,06,21,7.70
2013,04,16,06,22,7.70
2013,04,16,06,23,7.70
2013,04,16,06,24,7.70
2013,04,16,06,25,7.60
2013,04,16,06,26,7.60
2013,04,16,06,27,7.60
2013,04,16,06,28,7.60
2013,04,16,06,29,7.60
2013,04,16,06,30,7.50
2013,04,16,06,31,7.50
2013,04,16,06,32,7.50
2013,04,16,06,33,7.40
2013,04,16,06,34,7.40
2013,04,16,06,35,7.40
2013,04,16,06,36,7.30
2013,04,16,06,37,7.30
2013,04,16,06,38,7.30
2013,04,16,06,39,7.20
2013,04,16,06,40,7.20
2013,04,16,06,41,7.20
2013,04,16,06,42,7.10
2013,04,16,06,43,7.10
2013,04,16,06,44,7.00
2013,04,16,06,45,7.00
2013,04,16,06,46,7.00
2013,04,16,06,47,6.90
2013,04,16,06,48,6.90
2013,04,16,06,49,6.90
2013,04,16,06,50,6.80
2013,04,16,06,51,6.80
2013,04,16,06,52,6.80
2013,04,16,06,53,6.80
2013,04,16,06,54,6.80
2013,04,16,06,55,6.70
2013,04,16,06,56,6.70
2013,04,16,06,57,6.70
2013,04,16,06,58,6.70
2013,04,16,06,59,6.60
2013,04,16,07,00,6.60
2013,04,16,07,01,6.60
2013,04,16,07,02,6.60
2013,04,16,07,03,6.60
2013,04,16,07,04,6.60
2013,04,16,07,05,6.60
2013,04,16,07,06,6.60
2013,04,16,07,07,6.60
2013,04,16,07,08,6.70
2013,04,16,07,09,6.80
2013,04,16,07,10,6.90
2013,04,16,07,11,7.00
2013,04,16,07,12,7.00
2013,04,16,07,13,7.10
2013,04,16,07,14,7.20
2013,04,16,07,15,7.30
2013,04,16,07,16,7.40
2013,04,16,07,17,7.50
2013,04,16,07,18,7.60
2013,04,16,07,19,7.60
2013,04,16,07,20,7.70
2013,04,16,07,21,7.80
2013,04,16,07,22,7.80
2013,04,16,07,23,7.80
2013,04,16,07,24,7.90
2013,04,16,07,25,7.90
2013,04,16,07,26,8.00
2013,04,16,07,27,8.10
2013,04,16,07,28,8.10
2013,04,16,07,29,8.10
2013,04,16,07,30,8.20
2013,04,16,07,31,8.20
2013,04,16,07,32,8.30
2013,04,16,07,33,8.30
2013,04,16,07,34,8.30
2013,04,16,07,35,8.40
2013,04,16,07,36,8.40
2013,04,16,07,37,8.40
2013,04,16,07,38,8.50
2013,04,16,07,39,8.50
2013,04,16,07,40,8.50
2013,04,16,07,41,8.60
2013,04,16,07,42,8.60
2013,04,16,07,43,8.60
2013,04,16,07,44,8.70
2013,04,16,07,45,8.70
2013,04,16,07,46,8.70
2013,04,16,07,47,8.80
2013,04,16,07,48,8.80
2013,04,16,07,49,8.80
2013,04,16,07,50,8.80
2013,04,16,07,51,8.90
2013,04,16,07,52,8.90
2013,04,16,07,53,8.90
2013,04,16,07,54,8.90
2013,04,16,07,55,9.00
2013,04,16,07,56,9.00
2013,04,16,07,57,9.00
2013,04,16,07,58,9.10
2013,04,16,07,59,9.10
2013,04,16,08,00,9.10
2013,04,16,08,01,9.20
2013,04,16,08,02,9.20
2013,04,16,08,03,9.20
2013,04,16,08,04,9.20
2013,04,16,08,05,9.30
2013,04,16,08,06,9.30
2013,04,16,08,07,9.30
2013,04,16,08,08,9.30
2013,04,16,08,09,9.40
2013,04,16,08,10,9.40
2013,04,16,08,11,9.40
2013,04,16,08,12,9.40
2013,04,16,08,13,9.40
2013,04,16,08,14,9.40
2013,04,16,08,15,9.50
2013,04,16,08,16,9.50
2013,04,16,08,17,9.50
2013,04,16,08,18,9.50
2013,04,16,08,19,9.60
2013,04,16,08,20,9.60
2013,04,16,08,21,9.60
2013,04,16,08,22,9.60
2013,04,16,08,23,9.60
2013,04,16,08,24,9.60
2013,04,16,08,25,9.60
2013,04,16,08,26,9.70
2013,04,16,08,27,9.70
2013,04,16,08,28,9.70
2013,04,16,08,29,9.70
2013,04,16,08,30,9.70
2013,04,16,08,31,9.70
2013,04,16,08,32,9.70
2013,04,16,08,33,9.80
2013,04,16,08,34,9.80
2013,04,16,08,35,9.80
2013,04,16,08,36,9.80
2013,04,16,08,37,9.80
2013,04,16,08,38,9.80
2013,04,16,08,39,9.80
2013,04,16,08,40,9.80
2013,04,16,08,41,9.80
2013,04,16,08,42,9.90
2013,04,16,08,43,9.80
2013,04,16,08,44,9.90
2013,04,16,08,45,9.90
2013,04,16,08,46,9.90
2013,04,16,08,47,9.90
2013,04,16,08,48,9.90
2013,04,16,08,49,9.90
2013,04,16,08,50,9.90
2013,04,16,08,51,10.00
2013,04,16,08,52,10.00
2013,04,16,08,53,10.10
2013,04,16,08,54,10.10
2013,04,16,08,55,10.10
2013,04,16,08,56,10.20
2013,04,16,08,57,10.20
2013,04,16,08,58,10.20
2013,04,16,08,59,10.20
2013,04,16,09,00,10.30
2013,04,16,09,01,10.30
2013,04,16,09,02,10.30
2013,04,16,09,03,10.40
2013,04,16,09,04,10.40
2013,04,16,09,05,10.50
2013,04,16,09,06,10.50
2013,04,16,09,07,10.40
2013,04,16,09,08,10.40
2013,04,16,09,09,10.40
2013,04,16,09,10,10.40
2013,04,16,09,11,10.40
2013,04,16,09,12,10.40
2013,04,16,09,13,10.40
2013,04,16,09,14,10.40
2013,04,16,09,15,10.40
2013,04,16,09,16,10.40
2013,04,16,09,17,10.50
2013,04,16,09,18,10.50
2013,04,16,09,19,10.60
2013,04,16,09,20,10.60
2013,04,16,09,21,10.60
2013,04,16,09,22,10.60
2013,04,16,09,23,10.60
2013,04,16,09,24,10.70
2013,04,16,09,25,10.70
2013,04,16,09,26,10.70
2013,04,16,09,27,10.80
2013,04,16,09,28,10.80
2013,04,16,09,29,10.80
2013,04,16,09,30,10.80
2013,04,16,09,31,10.80
2013,04,16,09,32,10.90
2013,04,16,09,33,10.90
2013,04,16,09,34,10.80
2013,04,16,09,35,10.80
2013,04,16,09,36,10.90
2013,04,16,09,37,10.90
2013,04,16,09,38,10.90
2013,04,16,09,39,10.90
2013,04,16,09,40,10.90
2013,04,16,09,41,10.90
2013,04,16,09,42,10.80
2013,04,16,09,43,10.80
2013,04,16,09,44,10.80
2013,04,16,09,45,10.90
2013,04,16,09,46,10.90
2013,04,16,09,47,11.00
2013,04,16,09,48,11.00
2013,04,16,09,49,11.10
2013,04,16,09,50,11.20
2013,04,16,09,51,11.20
2013,04,16,09,52,11.20
2013,04,16,09,53,11.20
2013,04,16,09,54,11.20
2013,04,16,09,55,11.30
2013,04,16,09,56,11.30
2013,04,16,09,57,11.30
2013,04,16,09,58,11.30
2013,04,16,09,59,11.20
2013,04,16,10,00,11.10
2013,04,16,10,01,11.10
2013,04,16,10,02,11.10
2013,04,16,10,03,11.00
2013,04,16,10,04,11.00
2013,04,16,10,05,11.10
2013,04,16,10,06,11.10
2013,04,16,10,07,11.10
2013,04,16,10,08,11.10
2013,04,16,10,09,11.10
2013,04,16,10,10,11.10
2013,04,16,10,11,11.10
2013,04,16,10,12,11.00
2013,04,16,10,13,11.00
2013,04,16,10,14,11.00
2013,04,16,10,15,11.00
2013,04,16,10,16,11.00
2013,04,16,10,17,11.00
2013,04,16,10,18,10.90
2013,04,16,10,19,10.90
2013,04,16,10,20,10.90
2013,04,16,10,21,10.90
2013,04,16,10,22,10.90
2013,04,16,10,23,10.90
2013,04,16,10,24,10.80
2013,04,16,10,25,10.80
2013,04,16,10,26,10.90
2013,04,16,10,27,11.00
2013,04,16,10,28,11.00
2013,04,16,10,29,11.10
2013,04,16,10,30,11.20
2013,04,16,10,31,11.20
2013,04,16,10,32,11.20
2013,04,16,10,33,11.20
2013,04,16,10,34,11.30
2013,04,16,10,35,11.30
2013,04,16,10,36,11.30
2013,04,16,10,37,11.30
2013,04,16,10,38,11.30
2013,04,16,10,39,11.40
2013,04,16,10,40,11.40
2013,04,16,10,41,11.40
2013,04,16,10,42,11.40
2013,04,16,10,43,11.40
2013,04,16,10,44,11.40
2013,04,16,10,45,11.40
2013,04,16,10,46,11.40
2013,04,16,10,47,11.40
2013,04,16,10,48,11.30
2013,04,16,10,49,11.30
2013,04,16,10,50,11.20
2013,04,16,10,51,11.20
2013,04,16,10,52,11.30
2013,04,16,10,53,11.40
2013,04,16,10,54,11.40
2013,04,16,10,55,11.50
2013,04,16,10,56,11.50
2013,04,16,10,57,11.50
2013,04,16,10,58,11.60
2013,04,16,10,59,11.60
2013,04,16,11,00,11.50
2013,04,16,11,01,11.50
2013,04,16,11,02,11.50
2013,04,16,11,03,11.50
2013,04,16,11,04,11.50
2013,04,16,11,05,11.50
2013,04,16,11,06,11.50
2013,04,16,11,07,11.50
2013,04,16,11,08,11.50
2013,04,16,11,09,11.60
2013,04,16,11,10,11.60
2013,04,16,11,11,11.60
2013,04,16,11,12,11.60
2013,04,16,11,13,11.60
2013,04,16,11,14,11.60
2013,04,16,11,15,11.60
2013,04,16,11,16,11.60
2013,04,16,11,17,11.60
2013,04,16,11,18,11.60
2013,04,16,11,19,11.60
2013,04,16,11,20,11.60
2013,04,16,11,21,11.60
2013,04,16,11,22,11.50
2013,04,16,11,23,11.50
2013,04,16,11,24,11.50
2013,04,16,11,25,11.50
2013,04,16,11,26,11.60
2013,04,16,11,27,11.60
2013,04,16,11,28,11.60
2013,04,16,11,29,11.60
2013,04,16,11,30,11.60
2013,04,16,11,31,11.60
2013,04,16,11,32,11.60
2013,04,16,11,33,11.50
2013,04,16,11,34,11.50
2013,04,16,11,35,11.50
2013,04,16,11,36,11.50
2013,04,16,11,37,11.40
2013,04,16,11,38,11.40
2013,04,16,11,39,11.50
2013,04,16,11,40,11.60
2013,04,16,11,41,11.60
2013,04,16,11,42,11.70
2013,04,16,11,43,11.70
2013,04,16,11,44,11.80
2013,04,16,11,45,11.90
2013,04,16,11,46,11.90
2013,04,16,11,47,11.90
2013,04,16,11,48,11.90
2013,04,16,11,49,11.90
2013,04,16,11,50,11.80
2013,04,16,11,51,11.70
2013,04,16,11,52,11.60
2013,04,16,11,53,11.60
2013,04,16,11,54,11.60
2013,04,16,11,55,11.70
2013,04,16,11,56,11.70
2013,04,16,11,57,11.70
2013,04,16,11,58,11.80
2013,04,16,11,59,11.80
2013,04,16,12,00,11.80
2013,04,16,12,01,11.80
2013,04,16,12,02,11.80
2013,04,16,12,03,11.80
2013,04,16,12,04,11.70
2013,04,16,12,05,11.80
2013,04,16,12,06,11.80
2013,04,16,12,07,11.80
2013,04,16,12,08,11.80
2013,04,16,12,09,11.80
2013,04,16,12,10,11.90
2013,04,16,12,11,12.00
2013,04,16,12,12,12.00
2013,04,16,12,13,12.00
2013,04,16,12,14,12.00
2013,04,16,12,15,12.00
2013,04,16,12,16,12.00
2013,04,16,12,17,12.00
2013,04,16,12,18,12.10
2013,04,16,12,19,12.10
2013,04,16,12,20,12.10
2013,04,16,12,21,12.10
2013,04,16,12,22,12.10
2013,04,16,12,23,12.20
2013,04,16,12,24,12.20
2013,04,16,12,25,12.30
2013,04,16,12,26,12.30
2013,04,16,12,27,12.30
2013,04,16,12,28,12.30
2013,04,16,12,29,12.40
2013,04,16,12,30,12.40
2013,04,16,12,31,12.30
2013,04,16,12,32,12.30
2013,04,16,12,33,12.30
2013,04,16,12,34,12.30
2013,04,16,12,35,12.40
2013,04,16,12,36,12.40
2013,04,16,12,37,12.50
2013,04,16,12,38,12.50
2013,04,16,12,39,12.60
2013,04,16,12,40,12.70
2013,04,16,12,41,12.70
2013,04,16,12,42,12.80
2013,04,16,12,43,12.80
2013,04,16,12,44,12.90
2013,04,16,12,45,12.90
2013,04,16,12,46,12.90
2013,04,16,12,47,12.90
2013,04,16,12,48,12.90
2013,04,16,12,49,12.90
2013,04,16,12,50,12.90
2013,04,16,12,51,13.00
2013,04,16,12,52,13.00
2013,04,16,12,53,13.10
2013,04,16,12,54,13.10
2013,04,16,12,55,13.10
2013,04,16,12,56,13.20
2013,04,16,12,57,13.10
2013,04,16,12,58,13.10
2013,04,16,12,59,13.10
2013,04,16,13,00,13.00
2013,04,16,13,01,13.00
2013,04,16,13,02,12.90
2013,04,16,13,03,12.80
2013,04,16,13,04,12.80
2013,04,16,13,05,12.80
2013,04,16,13,06,12.80
2013,04,16,13,07,12.80
2013,04,16,13,08,12.80
2013,04,16,13,09,12.90
2013,04,16,13,10,13.00
2013,04,16,13,11,13.10
2013,04,16,13,12,13.20
2013,04,16,13,13,13.30
2013,04,16,13,14,13.30
2013,04,16,13,15,13.30
2013,04,16,13,16,13.40
2013,04,16,13,17,13.40
2013,04,16,13,18,13.40
2013,04,16,13,19,13.40
2013,04,16,13,20,13.30
2013,04,16,13,21,13.30
2013,04,16,13,22,13.30
2013,04,16,13,23,13.30
2013,04,16,13,24,13.30
2013,04,16,13,25,13.40
2013,04,16,13,26,13.50
2013,04,16,13,27,13.50
2013,04,16,13,28,13.60
2013,04,16,13,29,13.70
2013,04,16,13,30,13.70
2013,04,16,13,31,13.70
2013,04,16,13,32,13.70
2013,04,16,13,33,13.70
2013,04,16,13,34,13.70
2013,04,16,13,35,13.70
2013,04,16,13,36,13.70
2013,04,16,13,37,13.80
2013,04,16,13,38,13.80
2013,04,16,13,39,13.80
2013,04,16,13,40,13.80
2013,04,16,13,41,13.80
2013,04,16,13,42,13.80
2013,04,16,13,43,13.80
2013,04,16,13,44,13.70
2013,04,16,13,45,13.70
2013,04,16,13,46,13.70
2013,04,16,13,47,13.60
2013,04,16,13,48,13.60
2013,04,16,13,49,13.60
2013,04,16,13,50,13.60
2013,04,16,13,51,13.60
2013,04,16,13,52,13.60
2013,04,16,13,53,13.60
2013,04,16,13,54,13.70
2013,04,16,13,55,13.70
2013,04,16,13,56,13.80
2013,04,16,13,57,13.80
2013,04,16,13,58,13.80
2013,04,16,13,59,13.90
2013,04,16,14,00,13.90
2013,04,16,14,01,13.90
2013,04,16,14,02,13.80
2013,04,16,14,03,13.80
2013,04,16,14,04,13.90
2013,04,16,14,05,13.80
2013,04,16,14,06,13.90
2013,04,16,14,07,14.00
2013,04,16,14,08,14.10
2013,04,16,14,09,14.10
2013,04,16,14,10,14.20
2013,04,16,14,11,14.20
2013,04,16,14,12,14.20
2013,04,16,14,13,14.20
2013,04,16,14,14,14.10
2013,04,16,14,15,14.00
2013,04,16,14,16,13.90
2013,04,16,14,17,13.80
2013,04,16,14,18,13.80
2013,04,16,14,19,13.80
2013,04,16,14,20,13.90
2013,04,16,14,21,13.90
2013,04,16,14,22,13.90
2013,04,16,14,23,13.90
2013,04,16,14,24,14.00
2013,04,16,14,25,14.00
2013,04,16,14,26,14.10
2013,04,16,14,27,14.10
2013,04,16,14,28,14.10
2013,04,16,14,29,14.10
2013,04,16,14,30,14.20
2013,04,16,14,31,14.20
2013,04,16,14,32,14.30
2013,04,16,14,33,14.30
2013,04,16,14,34,14.40
2013,04,16,14,35,14.40
2013,04,16,14,36,14.40
2013,04,16,14,37,14.40
2013,04,16,14,38,14.40
2013,04,16,14,39,14.40
2013,04,16,14,40,14.40
2013,04,16,14,41,14.40
2013,04,16,14,42,14.30
2013,04,16,14,43,14.30
2013,04,16,14,44,14.30
2013,04,16,14,45,14.20
2013,04,16,14,46,14.20
2013,04,16,14,47,14.20
2013,04,16,14,48,14.20
2013,04,16,14,49,14.20
2013,04,16,14,50,14.20
2013,04,16,14,51,14.30
2013,04,16,14,52,14.40
2013,04,16,14,53,14.50
2013,04,16,14,54,14.70
2013,04,16,14,55,14.80
2013,04,16,14,56,14.90
2013,04,16,14,57,15.10
2013,04,16,14,58,15.10
2013,04,16,14,59,15.00
2013,04,16,15,00,15.00
2013,04,16,15,01,14.80
2013,04,16,15,02,14.80
2013,04,16,15,03,14.70
2013,04,16,15,04,14.70
2013,04,16,15,05,14.60
2013,04,16,15,06,14.60
2013,04,16,15,07,14.70
2013,04,16,15,08,14.80
2013,04,16,15,09,14.80
2013,04,16,15,10,14.80
2013,04,16,15,11,14.70
2013,04,16,15,12,14.70
2013,04,16,15,13,14.70
2013,04,16,15,14,14.70
2013,04,16,15,15,14.60
2013,04,16,15,16,14.50
2013,04,16,15,17,14.50
2013,04,16,15,18,14.50
2013,04,16,15,19,14.50
2013,04,16,15,20,14.50
2013,04,16,15,21,14.60
2013,04,16,15,22,14.60
2013,04,16,15,23,14.60
2013,04,16,15,24,14.60
2013,04,16,15,25,14.60
2013,04,16,15,26,14.60
2013,04,16,15,27,14.60
2013,04,16,15,28,14.70
2013,04,16,15,29,14.80
2013,04,16,15,30,14.70
2013,04,16,15,31,14.60
2013,04,16,15,32,14.50
2013,04,16,15,33,14.50
2013,04,16,15,34,14.50
2013,04,16,15,35,14.50
2013,04,16,15,36,14.50
2013,04,16,15,37,14.50
2013,04,16,15,38,14.40
2013,04,16,15,39,14.40
2013,04,16,15,40,14.40
2013,04,16,15,41,14.50
2013,04,16,15,42,14.60
2013,04,16,15,43,14.60
2013,04,16,15,44,14.70
2013,04,16,15,45,14.70
2013,04,16,15,46,14.80
2013,04,16,15,47,14.90
2013,04,16,15,48,14.90
2013,04,16,15,49,15.00
2013,04,16,15,50,15.00
2013,04,16,15,51,15.00
2013,04,16,15,52,15.00
2013,04,16,15,53,15.00
2013,04,16,15,54,14.90
2013,04,16,15,55,14.90
2013,04,16,15,56,14.80
2013,04,16,15,57,14.80
2013,04,16,15,58,14.80
2013,04,16,15,59,14.80
2013,04,16,16,00,14.90
2013,04,16,16,01,14.90
2013,04,16,16,02,14.90
2013,04,16,16,03,14.90
2013,04,16,16,04,14.80
2013,04,16,16,05,14.80
2013,04,16,16,06,14.80
2013,04,16,16,07,14.90
2013,04,16,16,08,14.90
2013,04,16,16,09,15.00
2013,04,16,16,10,15.10
2013,04,16,16,11,15.20
2013,04,16,16,12,15.20
2013,04,16,16,13,15.20
2013,04,16,16,14,15.20
2013,04,16,16,15,15.20
2013,04,16,16,16,15.30
2013,04,16,16,17,15.30
2013,04,16,16,18,15.30
2013,04,16,16,19,15.40
2013,04,16,16,20,15.40
2013,04,16,16,21,15.40
2013,04,16,16,22,15.50
2013,04,16,16,23,15.60
2013,04,16,16,24,15.60
2013,04,16,16,25,15.70
2013,04,16,16,26,15.60
2013,04,16,16,27,15.50
2013,04,16,16,28,15.50
2013,04,16,16,29,15.40
2013,04,16,16,30,15.30
2013,04,16,16,31,15.20
2013,04,16,16,32,15.20
2013,04,16,16,33,15.20
2013,04,16,16,34,15.20
2013,04,16,16,35,15.30
2013,04,16,16,36,15.30
2013,04,16,16,37,15.40
2013,04,16,16,38,15.50
2013,04,16,16,39,15.50
2013,04,16,16,40,15.50
2013,04,16,16,41,15.40
2013,04,16,16,42,15.30
2013,04,16,16,43,15.30
2013,04,16,16,44,15.30
2013,04,16,16,45,15.40
2013,04,16,16,46,15.50
2013,04,16,16,47,15.50
2013,04,16,16,48,15.40
2013,04,16,16,49,15.40
2013,04,16,16,50,15.40
2013,04,16,16,51,15.30
2013,04,16,16,52,15.30
2013,04,16,16,53,15.30
2013,04,16,16,54,15.30
2013,04,16,16,55,15.30
2013,04,16,16,56,15.30
2013,04,16,16,57,15.20
2013,04,16,16,58,15.10
2013,04,16,16,59,15.10
2013,04,16,17,00,15.10
2013,04,16,17,01,15.10
2013,04,16,17,02,15.20
2013,04,16,17,03,15.20
2013,04,16,17,04,15.20
2013,04,16,17,05,15.30
2013,04,16,17,06,15.30
2013,04,16,17,07,15.20
2013,04,16,17,08,15.10
2013,04,16,17,09,15.10
2013,04,16,17,10,15.00
2013,04,16,17,11,15.00
2013,04,16,17,12,15.00
2013,04,16,17,13,15.10
2013,04,16,17,14,15.20
2013,04,16,17,15,15.30
2013,04,16,17,16,15.30
2013,04,16,17,17,15.40
2013,04,16,17,18,15.50
2013,04,16,17,19,15.60
2013,04,16,17,20,15.70
2013,04,16,17,21,15.80
2013,04,16,17,22,15.80
2013,04,16,17,23,15.70
2013,04,16,17,24,15.60
2013,04,16,17,25,15.50
2013,04,16,17,26,15.50
2013,04,16,17,27,15.60
2013,04,16,17,28,15.60
2013,04,16,17,29,15.60
2013,04,16,17,30,15.60
2013,04,16,17,31,15.50
2013,04,16,17,32,15.50
2013,04,16,17,33,15.50
2013,04,16,17,34,15.60
2013,04,16,17,35,15.60
2013,04,16,17,36,15.60
2013,04,16,17,37,15.60
2013,04,16,17,38,15.70
2013,04,16,17,39,15.70
2013,04,16,17,40,15.70
2013,04,16,17,41,15.70
2013,04,16,17,42,15.70